EXS1HL LPMA-EGPH

Flight info

Callsign EXS1HL
Flight time N/A
Altitude 37000
Route DEGUN DCT MANOX/M079F370 T13 OMOKO DCT GUNSO/N0449F370 DCT LUNIG DCT ROTEV DCT GOTNA DCT BLACA P600 TUNSO
Aircraft B738/M-SDE2E3FGHIRWXY/LB1

Departure

Time N/A
Airport Cristiano Ronaldo International Airport (LPMA)

Arrival

Time 2026-04-21 17:00
Airport Edinburgh Airport (EGPH)
Time Latitude Longitude Altitude Speed Heading
2026-04-21 14:36 40.78026 -15.15187 35729 ft 469 kts 355°
2026-04-21 14:37 40.84549 -15.14826 35723 ft 470 kts 356°
2026-04-21 14:37 40.91104 -15.14461 35717 ft 472 kts 356°
2026-04-21 14:38 40.97673 -15.14095 35712 ft 473 kts 356°
2026-04-21 14:38 41.04248 -15.13728 35712 ft 474 kts 356°
2026-04-21 14:39 41.10840 -15.13360 35707 ft 475 kts 356°
2026-04-21 14:39 41.17447 -15.12989 35705 ft 475 kts 357°
2026-04-21 14:40 41.24059 -15.12618 35701 ft 476 kts 357°
2026-04-21 14:40 41.30688 -15.12245 35699 ft 477 kts 357°
2026-04-21 14:41 41.37316 -15.11872 35695 ft 477 kts 357°
2026-04-21 14:41 41.43915 -15.11499 35690 ft 478 kts 358°
2026-04-21 14:42 41.50562 -15.11123 35687 ft 478 kts 358°
2026-04-21 14:42 41.57213 -15.10746 35687 ft 479 kts 358°
2026-04-21 14:43 41.63881 -15.10367 35682 ft 480 kts 358°
2026-04-21 14:43 41.70551 -15.09987 35681 ft 480 kts 358°
2026-04-21 14:44 41.77237 -15.09605 35674 ft 481 kts 359°
2026-04-21 14:44 41.83931 -15.09223 35676 ft 482 kts 359°
2026-04-21 14:45 41.90632 -15.08838 35672 ft 482 kts 359°
2026-04-21 14:45 41.97346 -15.08433 35669 ft 484 kts
2026-04-21 14:46 42.03939 -15.06457 35652 ft 490 kts 19°
2026-04-21 14:46 42.10240 -15.03093 35653 ft 491 kts 21°
2026-04-21 14:47 42.16567 -14.99616 35655 ft 491 kts 20°
2026-04-21 14:47 42.22953 -14.96169 35657 ft 492 kts 20°
2026-04-21 14:48 42.29322 -14.92777 35647 ft 492 kts 20°
2026-04-21 14:48 42.35692 -14.89391 35644 ft 492 kts 20°
2026-04-21 14:49 42.42024 -14.86017 35645 ft 492 kts 21°
2026-04-21 14:49 42.48389 -14.82615 35634 ft 492 kts 21°
2026-04-21 14:50 42.53729 -14.79753 35638 ft 492 kts 21°
2026-04-21 14:50 42.61170 -14.75757 35637 ft 492 kts 21°
2026-04-21 14:51 42.67488 -14.72356 35633 ft 491 kts 22°
2026-04-21 14:51 42.73882 -14.68907 35629 ft 491 kts 22°
2026-04-21 14:52 42.80187 -14.65498 35623 ft 491 kts 22°
2026-04-21 14:52 42.86525 -14.62064 35619 ft 490 kts 22°
2026-04-21 14:53 42.92865 -14.58621 35613 ft 490 kts 22°
2026-04-21 14:53 42.99213 -14.55165 35623 ft 492 kts 23°
2026-04-21 14:54 43.05573 -14.51696 35614 ft 493 kts 23°
2026-04-21 14:54 43.11950 -14.48210 35612 ft 493 kts 23°
2026-04-21 14:55 43.18322 -14.44719 35604 ft 494 kts 23°
2026-04-21 14:55 43.24697 -14.41218 35593 ft 493 kts 23°
2026-04-21 14:56 43.31067 -14.37711 35597 ft 493 kts 24°
2026-04-21 14:56 43.37427 -14.34203 35585 ft 492 kts 24°
2026-04-21 14:57 43.43781 -14.30690 35588 ft 492 kts 24°
2026-04-21 14:57 43.50113 -14.27181 35589 ft 491 kts 24°
2026-04-21 14:58 43.56448 -14.23662 35584 ft 490 kts 24°
2026-04-21 14:58 43.62766 -14.20145 35580 ft 489 kts 24°
2026-04-21 14:59 43.69073 -14.16626 35578 ft 489 kts 25°
2026-04-21 14:59 43.75372 -14.13103 35567 ft 488 kts 25°
2026-04-21 15:00 43.81666 -14.09576 35577 ft 488 kts 25°
2026-04-21 15:00 43.87952 -14.06044 35572 ft 487 kts 25°
2026-04-21 15:01 43.94228 -14.02510 35565 ft 487 kts 25°
2026-04-21 15:01 44.00502 -13.98970 35567 ft 486 kts 25°
2026-04-21 15:02 44.06730 -13.95447 35564 ft 486 kts 25°
2026-04-21 15:02 44.12986 -13.91900 35566 ft 486 kts 26°
2026-04-21 15:03 44.19249 -13.88341 35559 ft 486 kts 26°
2026-04-21 15:03 44.25507 -13.84776 35551 ft 485 kts 26°
2026-04-21 15:04 44.31755 -13.81209 35556 ft 485 kts 26°
2026-04-21 15:04 44.37999 -13.77637 35555 ft 485 kts 26°
2026-04-21 15:05 44.44238 -13.74058 35549 ft 485 kts 26°
2026-04-21 15:05 44.53599 -13.68675 35545 ft 484 kts 27°
2026-04-21 15:06 44.59828 -13.65081 35538 ft 484 kts 27°
2026-04-21 15:06 44.66058 -13.61479 35544 ft 484 kts 27°
2026-04-21 15:07 44.72272 -13.57877 35541 ft 483 kts 27°
2026-04-21 15:07 44.78497 -13.54261 35542 ft 483 kts 27°
2026-04-21 15:08 44.84706 -13.50645 35539 ft 483 kts 27°
2026-04-21 15:08 44.90873 -13.47045 35535 ft 483 kts 27°
2026-04-21 15:09 44.97077 -13.43416 35538 ft 483 kts 27°
2026-04-21 15:09 45.03457 -13.40322 35544 ft 488 kts 19°
2026-04-21 15:10 45.10067 -13.38088 35536 ft 489 kts 17°
2026-04-21 15:10 45.16693 -13.35913 35531 ft 489 kts 18°
2026-04-21 15:11 45.23303 -13.33679 35526 ft 488 kts 18°
2026-04-21 15:11 45.29899 -13.31401 35527 ft 488 kts 19°
2026-04-21 15:12 45.36495 -13.29107 35527 ft 488 kts 19°
2026-04-21 15:12 45.41970 -13.27198 35531 ft 488 kts 19°
2026-04-21 15:13 45.48562 -13.24898 35526 ft 488 kts 19°
2026-04-21 15:13 45.55151 -13.22594 35523 ft 488 kts 19°
2026-04-21 15:14 45.61742 -13.20285 35528 ft 488 kts 19°
2026-04-21 15:14 45.68332 -13.17970 35529 ft 488 kts 19°
2026-04-21 15:15 45.74924 -13.15649 35528 ft 488 kts 19°
2026-04-21 15:15 45.81505 -13.13326 35535 ft 487 kts 19°
2026-04-21 15:16 45.88096 -13.10994 35535 ft 487 kts 19°
2026-04-21 15:16 45.94673 -13.08661 35537 ft 487 kts 19°
2026-04-21 15:17 46.01258 -13.06319 35532 ft 488 kts 19°
2026-04-21 15:17 46.07856 -13.03967 35538 ft 488 kts 19°
2026-04-21 15:18 46.14440 -13.01615 35544 ft 487 kts 19°
2026-04-21 15:18 46.21021 -12.99258 35562 ft 487 kts 19°
2026-04-21 15:19 46.27590 -12.96899 35559 ft 487 kts 19°
2026-04-21 15:19 46.34111 -12.94551 35567 ft 486 kts 19°
2026-04-21 15:20 46.40671 -12.92184 35569 ft 485 kts 19°
2026-04-21 15:20 46.47209 -12.89819 35577 ft 484 kts 19°
2026-04-21 15:21 46.53747 -12.87449 35580 ft 483 kts 18°
2026-04-21 15:21 46.60244 -12.85086 35582 ft 482 kts 18°
2026-04-21 15:22 46.66741 -12.82718 35597 ft 481 kts 18°
2026-04-21 15:22 46.73229 -12.80348 35604 ft 480 kts 18°
2026-04-21 15:23 46.79684 -12.77983 35606 ft 479 kts 18°
2026-04-21 15:23 46.86136 -12.75614 35614 ft 478 kts 18°
2026-04-21 15:24 46.92590 -12.73238 35621 ft 477 kts 18°
2026-04-21 15:24 46.99016 -12.70867 35626 ft 477 kts 18°
2026-04-21 15:25 47.05419 -12.68498 35634 ft 476 kts 18°
2026-04-21 15:25 47.11878 -12.66103 35640 ft 476 kts 18°
2026-04-21 15:26 47.18301 -12.63716 35645 ft 476 kts 18°
2026-04-21 15:26 47.24677 -12.61339 35652 ft 476 kts 18°
2026-04-21 15:27 47.31138 -12.58924 35660 ft 476 kts 18°
2026-04-21 15:27 47.37516 -12.56535 35670 ft 476 kts 18°
2026-04-21 15:28 47.43933 -12.54126 35676 ft 476 kts 18°
2026-04-21 15:28 47.50369 -12.51702 35679 ft 476 kts 18°
2026-04-21 15:29 47.56793 -12.49277 35687 ft 477 kts 18°
2026-04-21 15:29 47.63225 -12.46843 35687 ft 477 kts 18°
2026-04-21 15:30 47.69658 -12.44402 35699 ft 477 kts 18°
2026-04-21 15:30 47.76100 -12.41952 35702 ft 478 kts 18°
2026-04-21 15:31 47.82537 -12.39500 35715 ft 478 kts 18°
2026-04-21 15:31 47.88977 -12.37038 35720 ft 478 kts 18°
2026-04-21 15:32 47.95419 -12.34571 35729 ft 478 kts 18°
2026-04-21 15:32 48.01864 -12.32095 35739 ft 478 kts 18°
2026-04-21 15:33 48.08275 -12.29625 35740 ft 479 kts 18°
2026-04-21 15:33 48.14718 -12.27136 35746 ft 479 kts 18°
2026-04-21 15:34 48.21169 -12.24638 35764 ft 478 kts 18°
2026-04-21 15:34 48.27615 -12.22136 35761 ft 478 kts 18°
2026-04-21 15:35 48.34060 -12.19627 35778 ft 478 kts 18°
2026-04-21 15:35 48.40499 -12.17114 35788 ft 478 kts 18°
2026-04-21 15:36 48.46938 -12.14594 35796 ft 478 kts 18°
2026-04-21 15:36 48.53382 -12.12066 35797 ft 478 kts 17°
2026-04-21 15:37 48.59831 -12.09529 35804 ft 478 kts 17°
2026-04-21 15:37 48.66267 -12.06990 35822 ft 479 kts 17°
2026-04-21 15:38 48.72723 -12.04437 35827 ft 479 kts 17°
2026-04-21 15:38 48.79169 -12.01882 35835 ft 480 kts 17°
2026-04-21 15:39 48.85390 -11.98385 35851 ft 474 kts 32°
2026-04-21 15:39 48.90798 -11.92748 35854 ft 471 kts 40°
2026-04-21 15:40 48.96076 -11.86854 35855 ft 472 kts 40°
2026-04-21 15:40 49.01407 -11.81032 35870 ft 473 kts 39°
2026-04-21 15:41 49.06801 -11.75244 35878 ft 475 kts 37°
2026-04-21 15:41 49.12371 -11.69830 35884 ft 477 kts 35°
2026-04-21 15:42 49.18016 -11.64508 35894 ft 478 kts 34°
2026-04-21 15:42 49.23675 -11.59113 35899 ft 478 kts 35°
2026-04-21 15:43 49.29307 -11.53677 35908 ft 479 kts 35°
2026-04-21 15:43 49.34938 -11.48210 35921 ft 479 kts 35°
2026-04-21 15:44 49.40536 -11.42758 35928 ft 480 kts 35°
2026-04-21 15:44 49.46173 -11.37254 35933 ft 480 kts 35°
2026-04-21 15:45 49.51805 -11.31740 35939 ft 479 kts 35°
2026-04-21 15:45 49.57400 -11.26249 35950 ft 476 kts 34°
2026-04-21 15:46 49.62971 -11.20768 35958 ft 473 kts 34°
2026-04-21 15:46 49.68485 -11.15327 35966 ft 469 kts 34°
2026-04-21 15:47 49.73979 -11.09891 35992 ft 468 kts 34°
2026-04-21 15:47 49.79436 -11.04477 35988 ft 466 kts 34°
2026-04-21 15:48 49.84908 -10.99030 36008 ft 469 kts 34°
2026-04-21 15:48 49.90373 -10.93577 36014 ft 471 kts 34°
2026-04-21 15:49 49.95935 -10.88012 36025 ft 474 kts 34°
2026-04-21 15:49 50.01468 -10.82462 36034 ft 476 kts 34°
2026-04-21 15:50 50.07016 -10.76881 36047 ft 478 kts 33°
2026-04-21 15:50 50.12605 -10.71243 36042 ft 479 kts 33°
2026-04-21 15:51 50.18192 -10.65590 36061 ft 480 kts 33°
2026-04-21 15:51 50.23803 -10.59898 36055 ft 480 kts 33°
2026-04-21 15:52 50.29391 -10.54213 36068 ft 480 kts 33°
2026-04-21 15:52 50.34998 -10.48491 36079 ft 481 kts 33°
2026-04-21 15:53 50.40619 -10.42739 36095 ft 483 kts 33°
2026-04-21 15:53 50.46225 -10.36986 36078 ft 481 kts 33°
2026-04-21 15:54 50.51811 -10.31238 36108 ft 481 kts 33°
2026-04-21 15:54 50.57423 -10.25445 36097 ft 482 kts 33°
2026-04-21 15:55 50.63017 -10.19655 36105 ft 480 kts 33°
2026-04-21 15:55 50.68575 -10.13884 36112 ft 479 kts 33°
2026-04-21 15:56 50.74166 -10.08063 36131 ft 483 kts 33°
2026-04-21 15:56 50.79760 -10.02222 36108 ft 479 kts 33°
2026-04-21 15:57 50.85295 -9.96425 36131 ft 476 kts 33°
2026-04-21 15:57 50.90827 -9.90615 36156 ft 480 kts 33°
2026-04-21 15:58 50.96416 -9.84729 36144 ft 482 kts 33°
2026-04-21 15:58 51.01967 -9.78865 36143 ft 478 kts 33°
2026-04-21 15:59 51.07497 -9.73005 36163 ft 477 kts 33°
2026-04-21 15:59 51.13032 -9.67124 36160 ft 479 kts 33°
2026-04-21 16:00 51.18511 -9.61284 36161 ft 476 kts 33°
2026-04-21 16:00 51.23111 -9.56369 36169 ft 474 kts 33°
2026-04-21 16:01 51.28594 -9.50493 36185 ft 475 kts 33°
2026-04-21 16:01 51.34081 -9.44598 36198 ft 476 kts 33°
2026-04-21 16:02 51.39575 -9.38678 36186 ft 476 kts 33°
2026-04-21 16:02 51.45035 -9.32776 36186 ft 472 kts 33°
2026-04-21 16:03 51.50474 -9.26879 36217 ft 473 kts 33°
2026-04-21 16:03 51.55936 -9.20939 36215 ft 475 kts 33°
2026-04-21 16:04 51.61413 -9.14967 36210 ft 477 kts 33°
2026-04-21 16:04 51.66885 -9.08983 36212 ft 473 kts 33°
2026-04-21 16:05 51.72301 -9.03041 36231 ft 470 kts 33°
2026-04-21 16:05 51.77654 -8.97151 36224 ft 468 kts 33°
2026-04-21 16:06 51.83023 -8.91228 36225 ft 468 kts 33°
2026-04-21 16:06 51.88418 -8.85257 36234 ft 472 kts 33°
2026-04-21 16:07 51.93859 -8.79218 36214 ft 472 kts 33°
2026-04-21 16:07 51.99221 -8.73248 36209 ft 463 kts 33°
2026-04-21 16:08 52.07097 -8.64447 36217 ft 455 kts 33°
2026-04-21 16:09 52.12296 -8.58616 36231 ft 454 kts 33°
2026-04-21 16:09 52.17495 -8.52770 36242 ft 455 kts 32°
2026-04-21 16:10 52.22719 -8.46879 36248 ft 457 kts 32°
2026-04-21 16:10 52.27967 -8.40942 36259 ft 462 kts 32°
2026-04-21 16:11 52.33255 -8.34940 36256 ft 463 kts 32°
2026-04-21 16:11 52.38558 -8.28907 36259 ft 465 kts 32°
2026-04-21 16:12 52.43754 -8.22603 36268 ft 466 kts 36°
2026-04-21 16:12 52.48814 -8.15978 36271 ft 465 kts 36°
2026-04-21 16:13 52.53842 -8.09356 36269 ft 463 kts 36°
2026-04-21 16:13 52.58870 -8.02777 36278 ft 461 kts 36°
2026-04-21 16:14 52.63880 -7.96237 36276 ft 458 kts 36°
2026-04-21 16:14 52.68863 -7.89720 36283 ft 456 kts 36°
2026-04-21 16:15 52.73829 -7.83206 36280 ft 455 kts 36°
2026-04-21 16:15 52.78767 -7.76706 36288 ft 454 kts 36°
2026-04-21 16:16 52.83695 -7.70201 36290 ft 453 kts 36°
2026-04-21 16:16 52.88586 -7.63725 36294 ft 453 kts 36°
2026-04-21 16:17 52.93507 -7.57190 36307 ft 453 kts 36°
2026-04-21 16:17 52.98423 -7.50641 36308 ft 454 kts 36°
2026-04-21 16:18 53.03347 -7.44061 36319 ft 455 kts 36°
2026-04-21 16:18 53.08270 -7.37463 36324 ft 455 kts 36°
2026-04-21 16:19 53.13204 -7.30831 36320 ft 456 kts 36°
2026-04-21 16:19 53.18129 -7.24191 36327 ft 456 kts 36°
2026-04-21 16:20 53.23068 -7.17510 36321 ft 456 kts 36°
2026-04-21 16:20 53.27987 -7.10836 36324 ft 456 kts 36°
2026-04-21 16:21 53.32904 -7.04145 36325 ft 455 kts 36°
2026-04-21 16:21 53.37810 -6.97449 36331 ft 455 kts 36°
2026-04-21 16:22 53.42708 -6.90743 36330 ft 454 kts 36°
2026-04-21 16:22 53.47594 -6.84033 36339 ft 453 kts 36°
2026-04-21 16:23 53.52465 -6.77323 36338 ft 453 kts 36°
2026-04-21 16:23 53.57321 -6.70613 36346 ft 452 kts 36°
2026-04-21 16:24 53.62183 -6.63873 36346 ft 452 kts 36°
2026-04-21 16:24 53.67027 -6.57137 36361 ft 451 kts 36°
2026-04-21 16:25 53.71863 -6.50393 36356 ft 452 kts 36°
2026-04-21 16:25 53.76704 -6.43621 36373 ft 451 kts 36°
2026-04-21 16:26 53.81531 -6.36846 36372 ft 451 kts 37°
2026-04-21 16:26 53.86327 -6.30094 36366 ft 447 kts 37°
2026-04-21 16:27 53.91056 -6.23411 36371 ft 436 kts 37°
2026-04-21 16:27 53.95704 -6.16833 36273 ft 436 kts 37°
2026-04-21 16:27 53.98032 -6.13530 35934 ft 434 kts 37°
2026-04-21 16:28 54.00296 -6.10310 35607 ft 429 kts 36°
2026-04-21 16:28 54.02611 -6.07145 35225 ft 424 kts 31°
2026-04-21 16:28 54.05110 -6.04596 34853 ft 416 kts 22°
2026-04-21 16:28 54.07703 -6.02461 34459 ft 413 kts 20°
2026-04-21 16:29 54.10304 -6.00392 34005 ft 411 kts 20°
2026-04-21 16:29 54.12883 -5.98347 33607 ft 408 kts 20°
2026-04-21 16:29 54.15442 -5.96299 33217 ft 405 kts 20°
2026-04-21 16:29 54.17981 -5.94246 32831 ft 402 kts 20°
2026-04-21 16:30 54.20489 -5.92200 32489 ft 397 kts 20°
2026-04-21 16:30 54.22971 -5.90164 32123 ft 394 kts 20°
2026-04-21 16:30 54.25428 -5.88142 31768 ft 392 kts 20°
2026-04-21 16:30 54.27881 -5.86119 31406 ft 389 kts 20°
2026-04-21 16:31 54.30315 -5.84109 31048 ft 387 kts 19°
2026-04-21 16:31 54.32732 -5.82110 30701 ft 385 kts 19°
2026-04-21 16:31 54.35136 -5.80119 30334 ft 383 kts 19°
2026-04-21 16:31 54.37528 -5.78137 29924 ft 380 kts 19°
2026-04-21 16:32 54.39897 -5.76170 29544 ft 377 kts 19°
2026-04-21 16:32 54.42246 -5.74216 29183 ft 374 kts 20°
2026-04-21 16:32 54.44578 -5.72276 28831 ft 370 kts 20°
2026-04-21 16:32 54.46890 -5.70350 28458 ft 367 kts 20°
2026-04-21 16:33 54.49176 -5.68443 28104 ft 364 kts 20°
2026-04-21 16:33 54.51445 -5.66548 27738 ft 361 kts 20°
2026-04-21 16:33 54.53696 -5.64666 27397 ft 358 kts 21°
2026-04-21 16:33 54.55933 -5.62794 27048 ft 356 kts 21°
2026-04-21 16:34 54.58149 -5.60934 26703 ft 354 kts 22°
2026-04-21 16:34 54.60260 -5.58741 26348 ft 356 kts 34°
2026-04-21 16:34 54.62156 -5.56003 26044 ft 354 kts 38°
2026-04-21 16:34 54.63999 -5.53179 25701 ft 353 kts 39°
2026-04-21 16:35 54.65818 -5.50361 25362 ft 351 kts 39°
2026-04-21 16:35 54.67631 -5.47561 25029 ft 349 kts 39°
2026-04-21 16:35 54.69439 -5.44783 24703 ft 347 kts 39°
2026-04-21 16:35 54.71243 -5.42023 24364 ft 346 kts 39°
2026-04-21 16:36 54.73048 -5.39265 24033 ft 344 kts 40°
2026-04-21 16:36 54.74838 -5.36534 23643 ft 343 kts 40°
2026-04-21 16:36 54.76612 -5.33824 23282 ft 340 kts 40°
2026-04-21 16:36 54.78384 -5.31117 22936 ft 338 kts 40°
2026-04-21 16:37 54.80137 -5.28435 22604 ft 335 kts 40°
2026-04-21 16:37 54.81874 -5.25774 22273 ft 332 kts 41°
2026-04-21 16:37 54.83592 -5.23141 21958 ft 329 kts 41°
2026-04-21 16:37 54.85308 -5.20506 21624 ft 327 kts 41°
2026-04-21 16:38 54.87005 -5.17900 21302 ft 325 kts 41°
2026-04-21 16:38 54.88770 -5.15491 20973 ft 323 kts 32°
2026-04-21 16:38 54.90740 -5.13656 20678 ft 320 kts 27°
2026-04-21 16:38 54.92734 -5.11963 20361 ft 318 kts 26°
2026-04-21 16:39 54.94726 -5.10282 20048 ft 317 kts 27°
2026-04-21 16:39 54.96698 -5.08606 19738 ft 315 kts 27°
2026-04-21 16:39 54.98658 -5.06924 19435 ft 314 kts 28°
2026-04-21 16:39 55.00613 -5.05236 19122 ft 312 kts 28°
2026-04-21 16:40 55.02550 -5.03556 18817 ft 311 kts 28°
2026-04-21 16:40 55.04481 -5.01878 18466 ft 310 kts 28°
2026-04-21 16:40 55.06405 -5.00203 18136 ft 308 kts 28°
2026-04-21 16:40 55.08311 -4.98540 17813 ft 306 kts 28°
2026-04-21 16:41 55.09570 -4.97436 17616 ft 303 kts 30°
2026-04-21 16:41 55.11574 -4.94190 17340 ft 290 kts 60°
2026-04-21 16:41 55.12469 -4.91105 17185 ft 289 kts 67°
2026-04-21 16:41 55.13293 -4.87795 17026 ft 299 kts 69°
2026-04-21 16:42 55.14108 -4.84415 16841 ft 304 kts 69°
2026-04-21 16:42 55.14914 -4.81066 16667 ft 303 kts 68°
2026-04-21 16:42 55.15737 -4.77673 16485 ft 302 kts 68°
2026-04-21 16:42 55.16555 -4.74316 16315 ft 300 kts 68°
2026-04-21 16:43 55.17375 -4.70968 16156 ft 298 kts 68°
2026-04-21 16:43 55.18189 -4.67649 15989 ft 296 kts 68°
2026-04-21 16:43 55.18999 -4.64352 15828 ft 294 kts 68°
2026-04-21 16:43 55.19806 -4.61069 15670 ft 293 kts 68°
2026-04-21 16:44 55.20611 -4.57791 15506 ft 292 kts 68°
2026-04-21 16:44 55.21410 -4.54538 15339 ft 291 kts 68°
2026-04-21 16:44 55.22211 -4.51273 15179 ft 290 kts 68°
2026-04-21 16:44 55.23005 -4.48031 15023 ft 290 kts 68°
2026-04-21 16:45 55.23798 -4.44790 14861 ft 289 kts 68°
2026-04-21 16:45 55.24591 -4.41543 14702 ft 288 kts 68°
2026-04-21 16:45 55.25375 -4.38331 14541 ft 287 kts 68°
2026-04-21 16:45 55.26156 -4.35125 14381 ft 285 kts 68°
2026-04-21 16:46 55.26672 -4.33007 14282 ft 284 kts 69°
2026-04-21 16:46 55.27636 -4.30028 13960 ft 284 kts 47°
2026-04-21 16:46 55.29239 -4.28047 13517 ft 284 kts 32°
2026-04-21 16:46 55.30975 -4.26360 12925 ft 286 kts 31°
2026-04-21 16:47 55.32730 -4.24694 12374 ft 286 kts 31°
2026-04-21 16:47 55.34479 -4.23034 11879 ft 284 kts 31°
2026-04-21 16:47 55.36208 -4.21382 11413 ft 282 kts 31°
2026-04-21 16:47 55.37922 -4.19734 11114 ft 281 kts 31°
2026-04-21 16:48 55.39623 -4.18087 10869 ft 281 kts 32°
2026-04-21 16:48 55.41338 -4.16420 10610 ft 281 kts 31°
2026-04-21 16:48 55.43039 -4.14764 10384 ft 278 kts 32°
2026-04-21 16:48 55.44722 -4.13124 10118 ft 275 kts 32°
2026-04-21 16:49 55.46380 -4.11502 9896 ft 271 kts 32°
2026-04-21 16:49 55.48018 -4.09896 9655 ft 269 kts 32°
2026-04-21 16:49 55.49652 -4.08293 9439 ft 268 kts 32°
2026-04-21 16:49 55.51279 -4.06694 9225 ft 268 kts 31°
2026-04-21 16:50 55.52899 -4.05097 8997 ft 267 kts 32°
2026-04-21 16:50 55.54517 -4.03501 8791 ft 267 kts 32°
2026-04-21 16:50 55.56138 -4.01901 8561 ft 267 kts 32°
2026-04-21 16:50 55.57760 -4.00301 8353 ft 266 kts 32°
2026-04-21 16:51 55.59374 -3.98705 8110 ft 265 kts 32°
2026-04-21 16:51 55.60982 -3.97115 7907 ft 264 kts 32°
2026-04-21 16:51 55.62582 -3.95531 7679 ft 264 kts 32°
2026-04-21 16:51 55.64179 -3.93949 7476 ft 262 kts 32°
2026-04-21 16:52 55.65772 -3.92368 7248 ft 262 kts 32°
2026-04-21 16:52 55.67358 -3.90793 7039 ft 261 kts 32°
2026-04-21 16:52 55.68941 -3.89223 6821 ft 260 kts 32°
2026-04-21 16:52 55.70513 -3.87656 6603 ft 258 kts 31°
2026-04-21 16:53 55.72093 -3.86086 6048 ft 266 kts 32°
2026-04-21 16:53 55.73471 -3.84710 5841 ft 259 kts 32°
2026-04-21 16:53 55.74988 -3.83201 5759 ft 246 kts 32°
2026-04-21 16:53 55.76447 -3.81747 5640 ft 230 kts 32°
2026-04-21 16:54 55.77800 -3.80394 5522 ft 215 kts 33°
2026-04-21 16:54 55.79044 -3.79153 5379 ft 202 kts 33°
2026-04-21 16:54 55.80298 -3.77896 4922 ft 207 kts 33°
2026-04-21 16:54 55.81430 -3.76383 4602 ft 199 kts 54°
2026-04-21 16:55 55.82264 -3.74495 4434 ft 191 kts 54°
2026-04-21 16:55 55.83039 -3.72634 4271 ft 186 kts 58°
2026-04-21 16:55 55.83739 -3.70714 4114 ft 184 kts 60°
2026-04-21 16:55 55.84405 -3.68772 4066 ft 184 kts 61°
2026-04-21 16:56 55.85064 -3.66814 4012 ft 185 kts 62°
2026-04-21 16:56 55.85740 -3.64793 3766 ft 192 kts 61°
2026-04-21 16:56 55.86418 -3.62790 3499 ft 186 kts 61°
2026-04-21 16:56 55.87059 -3.60863 3271 ft 178 kts 61°
2026-04-21 16:57 55.87688 -3.59006 3043 ft 173 kts 60°
2026-04-21 16:57 55.88308 -3.57152 2759 ft 174 kts 61°
2026-04-21 16:57 55.88908 -3.55356 2540 ft 165 kts 61°
2026-04-21 16:57 55.89483 -3.53642 2326 ft 157 kts 61°
2026-04-21 16:58 55.90030 -3.52012 2110 ft 149 kts 61°
2026-04-21 16:58 55.90541 -3.50495 1950 ft 138 kts 62°
2026-04-21 16:58 55.91037 -3.48983 1699 ft 147 kts 63°
2026-04-21 16:58 55.91567 -3.47409 1509 ft 149 kts 60°
2026-04-21 16:59 55.92098 -3.45803 1305 ft 149 kts 62°
2026-04-21 16:59 55.92621 -3.44237 1021 ft 146 kts 60°
2026-04-21 16:59 55.93141 -3.42744 725 ft 136 kts 62°
2026-04-21 16:59 55.93612 -3.41309 492 ft 136 kts 59°
2026-04-21 17:00 55.94111 -3.39885 301 ft 134 kts 59°
2026-04-21 17:00 55.94587 -3.38478 146 ft 132 kts 61°
2026-04-21 17:00 55.94893 -3.37564 115 ft 118 kts 61°
2026-04-21 17:00 55.95261 -3.36481 111 ft 37 kts 59°
2026-04-21 17:01 55.95324 -3.36294 109 ft 13 kts 59°
2026-04-21 17:01 55.95380 -3.36130 108 ft 16 kts 58°
2026-04-21 17:01 55.95437 -3.35961 109 ft 18 kts 59°
2026-04-21 17:01 55.95499 -3.35778 112 ft 14 kts 58°
2026-04-21 17:02 55.95546 -3.35638 112 ft 13 kts 59°
2026-04-21 17:02 55.95558 -3.35512 110 ft 9 kts 124°
2026-04-21 17:02 55.95517 -3.35459 112 ft 6 kts 149°
2026-04-21 17:02 55.95485 -3.35424 112 ft 5 kts 149°
2026-04-21 17:03 55.95483 -3.35422 112 ft 0 kts 149°
2026-04-21 17:03 55.95482 -3.35422 112 ft 0 kts 149°
2026-04-21 17:03 55.95480 -3.35419 115 ft 1 kts 149°
2026-04-21 17:03 55.95477 -3.35416 115 ft 1 kts 149°
2026-04-21 17:04 55.95417 -3.35441 114 ft 22 kts 232°
2026-04-21 17:04 55.95352 -3.35638 114 ft 16 kts 239°
2026-04-21 17:04 55.95296 -3.35803 113 ft 15 kts 239°
2026-04-21 17:04 55.95242 -3.35959 115 ft 14 kts 239°
2026-04-21 17:05 55.95193 -3.36107 114 ft 13 kts 239°
2026-04-21 17:05 55.95146 -3.36245 114 ft 13 kts 239°
2026-04-21 17:05 55.95103 -3.36373 115 ft 12 kts 238°
2026-04-21 17:05 55.95063 -3.36491 114 ft 11 kts 239°
2026-04-21 17:06 55.95026 -3.36602 114 ft 10 kts 239°
2026-04-21 17:06 55.94990 -3.36707 112 ft 10 kts 239°
2026-04-21 17:06 55.94954 -3.36811 113 ft 8 kts 229°
2026-04-21 17:06 55.94908 -3.36816 112 ft 6 kts 155°
2026-04-21 17:07 55.94872 -3.36787 114 ft 6 kts 166°